Regional Weather Roundup
Issued by NWS

Home | Current Version | Previous Version | Text Only | Print | Product List | Glossary On
Versions: 1 2 3 4 5 6 7 8 9 10 11 12 13 14 15 16 17 18 19 20 21 22 23 24 25 26 27 28 29 30 31 32 33 34 35 36 37 38 39 40 41 42 43 44 45 46 47 48 49 50
000
ASUS43 KMPX 240110
RWRMN
WEATHER ROUNDUP FOR MINNESOTA
NATIONAL WEATHER SERVICE TWIN CITIES/CHANHASSEN MN
800 PM CDT TUE AUG 23 2016


NOTE: "FAIR" INDICATES FEW OR NO CLOUDS BELOW 12,000 FEET WITH NO
SIGNIFICANT WEATHER AND/OR OBSTRUCTIONS TO VISIBILITY. N/A MEANS
CURRENT SKY AND/OR WEATHER CONDITIONS ARE NOT AVAILABLE.

MNZ060>063-068>070-240200-
   Twin Cities Metro

CITY           SKY/WX    TMP DP  RH WIND       PRES   REMARKS
TWIN CITIES    LGT RAIN  72  65  78 SE10      29.84F
ST PAUL        LGT RAIN  73  65  75 S10G21    29.84F
CRYSTAL        CLOUDY    75  62  64 S15G29    29.82F
BLAINE         CLOUDY    77  64  65 SE14G22   29.84F
LAKEVILLE      LGT RAIN  68  68 100 S7        29.85F
EDEN PRAIRIE   CLOUDY    72  66  81 S12       29.83F
LAKEVILLE      LGT RAIN  68  68 100 S7        29.85F
SOUTH ST PAUL  CLOUDY    73  65  77 SE8       29.84F
LAKE ELMO      FAIR      73  64  73 SE12G18   29.86F
$$
MNZ001>005-007-008-013>017-022>024-027-028-240200-
   Northwest Minnesota

CITY           SKY/WX    TMP DP  RH WIND       PRES   REMARKS
BEMIDJI        MOCLDY    79  70  73 S8        29.78S
HALLOCK        MOCLDY    81  70  69 W12       29.65R
ROSEAU         CLOUDY    82  72  69 S17G24    29.67F
WARROAD        MOCLDY    81  72  74 S6        29.69F
THIEF RVR FALL CLEAR     80  66  62 S17       29.71S
CROOKSTON      CLOUDY    82  64  54 S15G23    29.70S
FOSSTON        CLEAR     75  64  69 S15       29.76R
DETROIT LAKES  CLEAR     77  61  57 S14G20    29.79R
MOORHEAD       CLEAR     81  63  54 S13G22    29.75R
PARK RAPIDS    CLOUDY    78  69  73 S9        29.80S
MAHNOMEN       FAIR      78  65  66 S15G23    29.75S
$$
MNZ006-009>011-018-025>026-240200-
   North Central Minnesota

CITY           SKY/WX    TMP DP  RH WIND       PRES   REMARKS
BAUDETTE       CLEAR     80  68  66 S15G22    29.71S
FLAG ISLAND    MOCLDY    79  68  69 SE3       29.67F
INTL FALLS     CLEAR     79  66  64 S9        29.76R
WASKISH        CLEAR     81  70  69 S6        29.75S
BIG FORK       CLEAR     79  66  65 S9G17     29.80F
LONGVILLE      CLOUDY    77  70  78 S9        29.82S
GRAND RAPIDS   CLOUDY    77  69  76 S10       29.85F
CRANE LAKE     CLEAR     77  64  65 S10G16    29.81S
ORR            CLEAR     77  64  65 S9        29.79S
COOK           CLEAR     77  66  69 S7        29.83F
WALKER         FAIR      77  69  76 S10       29.79F
$$
MNZ012-019>021-037-240200-
   Northeast Minnesota

CITY           SKY/WX    TMP DP  RH WIND       PRES   REMARKS
DULUTH         MOCLDY    76  68  76 S12       29.88F
ELY            CLEAR     77  64  65 S7        29.86F
HIBBING        CLOUDY    76  67  73 S5        29.84F
EVELETH        CLOUDY    78  68  70 S9        29.87S
DULUTH HARBOR  CLOUDY    79  70  73 S12       29.86F
TWO HARBORS    MOCLDY    79  70  73 S6        29.87F
SILVER BAY     PTCLDY    73  64  73 CALM      29.87F
GRAND MARAIS     N/A     71  65  81 NE5       29.88S
G MARAIS ARPRT PTCLDY    68  61  77 S7        29.94F
$$
MNZ029>031-032-039>041-046>048-054>057-064-240200-
   West Central Minnesota

CITY           SKY/WX    TMP DP  RH WIND       PRES   REMARKS
FERGUS FALLS   PTCLDY    75  66  73 S12       29.78S
WHEATON        PTCLDY    79  70  73 SE9G17    29.77F
MORRIS         PTCLDY    75  66  73 S8        29.77F
ALEXANDRIA     CLOUDY    75  68  78 S12       29.82F
ELBOW LAKE     FAIR      74  67  78 SE13      29.78F
WADENA         CLOUDY    75  68  78 S7        29.80S
GLENWOOD       CLOUDY    73  68  83 S10       29.82S
APPLETON       MOCLDY    73  66  78 S12       29.77F
BENSON         CLOUDY    73  64  73 SW13      29.79F
ORTONVILLE     MOCLDY    75  66  73 S7        29.78R
MADISON        MOCLDY    72  66  83 S10       29.79S
WILLMAR        FAIR      75  70  83 S3        29.83S
$$
MNZ033>034-036-042>043-049>051-058-059-240200-
   Central Minnesota

CITY           SKY/WX    TMP DP  RH WIND       PRES   REMARKS
ST CLOUD       CLOUDY    74  66  76 SE10      29.83F
SAUK CENTRE    FAIR      73  69  89 S7        29.82F
PAYNESVILLE    CLOUDY    75  67  75 SE9       29.83R
AITKIN         PTCLDY    79  66  65 S8        29.83S
PINE RIVER     CLOUDY    77  70  78 S8        29.86S
BRAINERD       CLOUDY    77  69  76 S16G22    29.83F
STAPLES        CLOUDY    75  68  78 S9        29.81F
LONG PRAIRIE   FAIR      73  68  83 SE8       29.82F
LITTLE FALLS   CLOUDY    73  64  73 S9G16     29.82F
LITCHFIELD     CLOUDY    73  66  78 S5        29.84R
BUFFALO        CLOUDY    73  63  70 SE10G18   29.85R
MAPLE LAKE     CLOUDY    74  66  75 S5        29.84S
HUTCHINSON     CLOUDY    68  66  94 S7        29.84R
$$
MNZ037-044-045-052-053-240200-
   East Central Minnesota

CITY           SKY/WX    TMP DP  RH WIND       PRES   REMARKS
PRINCETON      CLOUDY    75  64  69 SE8       29.84F
MORA           MOCLDY    73  61  64 S10G17    29.87S
CAMBRIDGE      MOCLDY    77  63  61 SE9       29.83F
RUSH CITY      CLOUDY    74  64  71 S6        29.87F
MOOSE LAKE     CLOUDY    75  66  73 S7        29.85F
HINCKLEY       FAIR      75  64  69 S9G18     29.87F
CLOQUET        MOCLDY    75  66  73 S7        29.88F
MCGREGOR       MOCLDY    77  70  78 S9        29.85F
$$
MNZ071>073-080-081-089-090-097-098-240200-
   Southwest Minnesota

CITY           SKY/WX    TMP DP  RH WIND       PRES   REMARKS
MONTEVIDEO     MOCLDY    70  66  88 S12       29.82F
GRANITE FALLS  CLOUDY    69  67  93 SE7       29.83S
CANBY          CLOUDY    71  67  88 SE7       29.81R
MARSHALL       CLOUDY    67  66  97 SE9       29.81F
REDWOOD FALLS  HVY RAIN  66  64  93 S14       29.82S FOG
OLIVIA         CLOUDY    70  64  83 SW7       29.82R
PIPESTONE      CLOUDY    70  66  88 CALM      29.82S
WINDOM         CLOUDY    66  64  94 SE9       29.82S
WORTHINGTON    CLOUDY    69  68  96 S10       29.82S
JACKSON        CLOUDY    68  64  88 SE12G18   29.84S FOG
TRACY          CLOUDY    66  66 100 CALM      29.83S THUNDER
SLAYTON        CLOUDY    66  64  94 NE3       29.84R
$$
MNZ065>067-074>077-082>085-091>093-240200-
   South Central Minnesota

CITY           SKY/WX    TMP DP  RH WIND       PRES   REMARKS
MANKATO        CLOUDY    66  63  88 S13       29.86F THUNDER
NEW ULM          N/A     64  64 100 S8        29.83R
ST JAMES       CLOUDY    61  61 100 SE8       29.85R
FAIRMONT         N/A    N/A N/A N/A MISG        N/A
GLENCOE        CLOUDY    68  67  96 S6        29.83R
FARIBAULT      CLOUDY    68  66  94 SW9       29.90R THUNDER
OWATONNA       TSTM      70  64  83 SE9       29.85F
WASECA         TSTM      64  63  94 W6G24     29.94R VSB 1
ALBERT LEA     CLOUDY    66  64  94 S9        29.87S
$$
MNZ078>079-086>088-094>096-240200-
   Southeast Minnesota

CITY           SKY/WX    TMP DP  RH WIND       PRES   REMARKS
ROCHESTER      LGT RAIN  70  66  87 SE14G25   29.89F
RED WING       RAIN      73  66  78 SE10      29.86F
STANTON        CLOUDY    70  64  83 SE10G18   29.83F
DODGE CENTER   LGT RAIN  68  64  88 SE12      29.87F
WINONA         MOCLDY    73  63  68 SE7       29.94F
AUSTIN         CLOUDY    64  61  88 SE8       29.87F
PRESTON        TSTM      68  65  89 SE18G25   29.90F
$$
ABBREVIATIONS USED IN REMARKS
   TC - TEMPERATURES IN CELSIUS
  WCI - WIND CHILL INDEX
   HX - HEAT INDEX
  VSB - VISIBILITY
$$




USA.gov is the U.S. government's official web portal to all federal, state and local government web resources and services.